Temperature
22 24 25 25 25 25 23 22 21 21 21 21 21 21 22 22 22 22 22 22 22 22 21 21 21 21 21 20 20 20 20 19 19 19 19 19 19 19 19 19 18 18 18 18
23 24 24 24 24 24 24 23 22 22 21 21 22 22 22 22 22 21 22 22 22 21 21 21 21 20 20 20 20 20 20 19 19 19 19 19 18 18 18 18 18 18 18 17
21 22 23 22 23 24 23 22 22 21 21 20 20 21 21 21 21 21 21 21 21 21 21 21 20 20 20 20 20 20 19 19 19 19 18 18 18 18 18 18 17 17 17 17
19 21 22 21 22 24 23 22 21 21 21 21 21 21 21 21 21 21 21 21 21 21 21 20 20 20 20 19 19 19 19 19 19 18 18 18 18 17 17 17 17 17 17 17
17 19 20 21 22 22 22 20 21 21 20 21 21 20 20 20 21 21 21 21 21 21 20 20 19 19 19 19 19 18 18 18 18 18 18 18 17 17 17 17 17 17 17 16
17 19 19 20 22 23 21 19 20 20 19 20 20 17 18 20 20 20 20 20 20 20 20 19 19 19 18 18 18 18 18 18 18 18 18 17 17 17 17 17 16 16 16 16
18 18 19 20 22 22 20 18 20 20 20 20 19 19 20 20 20 20 19 19 19 19 19 19 19 18 18 18 18 17 17 17 17 17 17 17 17 17 16 16 16 16 16 16
16 17 18 20 20 19 18 20 20 20 20 20 20 20 19 19 19 19 19 19 19 18 18 18 18 18 17 17 17 17 17 16 16 16 16 16 16 16 16 16 16 16 15 15
16 16 18 19 20 20 20 20 20 20 20 20 19 19 19 19 18 18 18 18 18 18 17 17 17 17 17 17 16 16 16 16 16 16 16 15 15 15 15 15 15 15 15 15
15 16 18 19 20 20 20 20 20 20 19 19 19 19 18 18 18 18 17 17 17 17 17 17 16 16 16 16 16 16 15 15 15 15 15 15 15 15 15 15 15 15 15 15
15 16 17 18 19 19 19 19 19 19 19 19 18 18 18 17 17 17 17 16 16 16 16 16 16 15 15 15 15 15 15 15 15 15 14 14 14 14 14 14 14 14 14 14
14 16 15 17 18 19 19 18 18 18 18 18 18 17 17 17 16 16 16 16 16 15 15 15 15 15 15 15 14 14 14 14 14 14 14 14 14 14 14 14 14 14 14 14
18 18 18 18 18 18 18 18 17 17 17 17 17 17 16 16 16 16 15 15 15 15 15 14 14 14 14 14 14 14 14 13 13 13 13 13 13 13 13 13 13 13 13 14
18 18 17 17 17 17 17 17 17 17 16 16 16 16 16 15 15 15 15 15 14 14 14 14 14 13 13 13 13 13 13 13 13 12 12 12 12 12 12 12 12 13 13 13
18 17 17 17 17 17 16 16 16 16 15 15 15 15 15 15 14 14 14 14 14 14 13 13 13 13 13 13 13 12 12 12 12 12 12 12 12 12 12 12 12 12 12 12
16 16 16 16 16 16 16 16 15 15 15 15 14 14 14 14 14 14 13 13 13 13 13 13 12 12 12 12 12 12 12 12 11 11 11 11 11 11 11 11 11 11 11 12
16 15 16 15 15 15 15 15 15 15 14 14 14 14 13 13 13 13 13 13 12 12 12 12 12 12 12 11 11 11 11 11 11 11 11 11 11 11 11 11 11 11 11 11
16 15 15 15 15 15 15 15 14 14 14 13 13 13 13 13 12 12 12 12 12 12 12 11 11 11 11 11 11 11 11 11 10 10 10 10 10 10 11 11 11 11 11 11
15 15 14 14 14 14 14 14 14 14 13 13 13 12 12 12 12 12 12 12 11 11 11 11 11 11 11 11 10 10 10 10 10 10 10 10 10 10 10 10 10 10 10 10
15 14 14 14 14 14 14 14 13 13 13 12 12 12 12 12 11 11 11 11 11 11 11 10 10 10 10 10 10 10 10 10 10 10 10 10 10 10 10 10 10 10 10 10
14 14 14 14 14 13 13 13 13 13 12 12 12 12 12 11 11 11 11 11 11 10 10 10 10 10 10 10 10 10 10 10 10 9 9 9 9 9 9 9 9 9 9 9
14 14 14 13 13 13 13 13 12 12 12 12 12 12 11 11 11 11 11 10 10 10 10 10 10 10 10 10 10 10 10 9 9 9 9 9 9 9 9 9 9 9 9 9
13 13 13 13 13 13 13 12 12 12 12 11 11 11 11 11 11 10 10 10 10 10 10 9 9 9 9 9 9 9 9 9 9 9 9 8 8 8 8 8 8 8 8 8
13 13 13 13 13 12 12 12 12 12 11 11 11 11 11 11 10 10 10 10 10 9 9 9 9 9 9 9 9 9 9 9 9 8 8 8 8 8 8 8 8 8 8 8
13 13 13 12 12 12 12 12 11 11 11 11 11 11 11 10 10 10 10 10 9 9 9 9 9 9 9 8 8 8 8 8 8 8 8 8 8 8 7 7 7 7 7 7
12 12 12 12 12 12 12 12 11 11 11 11 11 11 10 10 10 10 10 9 9 9 9 8 8 8 8 8 8 8 8 7 7 7 7 7 7 7 7 7 7 7 7 7
12 12 12 12 12 12 12 11 11 11 11 11 11 10 10 10 10 10 9 9 9 9 8 8 8 8 8 8 7 7 7 7 7 7 7 7 7 7 6 6 6 6 6 6
Wind_Speed
4 3 1 1 4 2 1 6 7 7 7 7 7 7 6 6 8 8 7 6 7 6 5 4 4 3 3 3 3 4 5 5 7 7 6 5 5 5 5 5 6 5 5 5
2 2 3 3 4 2 1 1 4 5 3 4 5 5 5 6 8 8 7 6 6 7 7 5 5 4 3 2 2 3 4 5 5 4 4 5 5 4 4 4 4 3 4 5
2 3 4 3 2 1 1 1 5 5 5 4 5 5 5 5 5 5 5 5 5 6 6 6 5 5 4 3 2 2 2 3 3 4 5 5 4 3 4 5 4 4 5 5
2 2 2 7 3 3 4 2 2 5 5 7 8 7 6 6 7 5 4 4 4 4 4 4 4 4 3 3 2 2 2 2 3 4 4 4 3 4 4 4 4 5 5 5
4 3 3 5 4 0 4 2 3 5 6 6 8 8 5 2 5 5 4 4 3 3 4 3 3 3 3 3 2 1 1 2 3 4 4 4 4 5 4 3 4 5 4 4
4 4 5 6 6 1 6 2 3 5 6 5 6 4 2 1 3 3 3 3 2 3 4 3 2 3 3 2 1 1 2 2 2 3 3 5 5 5 4 3 5 5 5 5
4 4 5 5 5 3 4 5 2 3 6 6 4 5 4 3 4 4 4 3 3 3 3 1 1 3 3 1 1 2 2 1 1 2 3 4 4 4 4 4 5 5 5 5
2 2 5 5 3 4 5 3 3 4 5 6 5 4 4 4 4 4 4 3 3 3 2 1 2 3 2 0 2 1 1 1 2 3 3 2 3 4 4 4 5 5 4 5
5 5 5 1 3 3 5 6 4 4 5 7 6 4 4 3 3 3 3 2 2 2 1 1 1 2 2 2 2 0 0 2 3 3 3 3 3 4 4 4 4 5 4 5
2 0 1 3 4 5 5 6 5 5 5 6 4 4 3 2 2 2 2 1 1 2 1 1 2 0 1 2 1 1 1 2 3 3 3 3 2 3 4 4 5 5 5 5
1 1 3 4 3 4 5 5 6 5 5 5 5 3 2 2 1 1 1 0 1 1 1 1 2 2 3 2 1 1 2 3 3 3 3 3 3 3 4 5 5 6 6 5
4 6 4 3 1 3 5 5 4 5 4 3 3 2 2 2 1 2 1 1 1 0 0 2 2 3 3 3 2 1 2 3 3 3 3 3 3 4 5 5 6 6 7 6
4 3 4 2 1 3 4 4 4 4 4 3 2 2 2 2 1 1 1 1 0 1 1 2 2 3 4 4 2 2 3 3 3 3 3 3 3 3 4 5 5 5 6 6
3 4 3 1 0 2 3 3 4 4 4 4 3 2 2 2 1 1 0 1 1 0 1 1 2 4 4 3 2 2 3 4 4 4 4 4 4 4 3 3 3 4 4 5
2 2 3 2 2 2 3 4 5 4 3 2 2 2 2 1 1 2 2 1 1 0 2 2 3 4 4 3 3 3 3 3 3 4 3 3 3 3 3 4 3 3 3 3
2 2 3 4 3 2 4 4 4 2 2 1 1 0 0 0 1 1 2 1 1 1 3 3 4 5 4 3 3 3 4 5 4 3 3 3 3 3 3 3 3 3 4 4
4 2 3 2 2 1 2 3 3 2 2 1 1 1 1 1 1 2 2 2 2 3 3 4 5 5 4 3 3 3 4 4 5 4 3 3 3 3 3 3 4 4 4 5
5 4 4 4 3 2 2 2 2 2 2 2 1 1 1 0 1 2 3 2 2 3 4 4 4 4 4 4 4 4 3 3 3 3 3 3 3 3 3 3 4 4 4 3
5 4 3 2 3 3 2 2 2 2 1 1 1 0 1 1 1 2 2 1 2 4 5 5 5 4 4 4 4 3 3 3 3 3 3 3 3 3 3 3 4 3 3 2
3 3 2 2 3 3 3 2 2 1 0 1 1 0 1 2 2 2 1 1 3 3 4 5 4 3 4 4 4 2 2 3 3 3 3 2 3 3 3 3 3 3 2 2
3 2 2 2 3 3 3 2 2 1 0 0 1 1 1 2 1 1 1 2 4 4 3 4 3 3 4 4 4 2 2 3 2 2 2 2 2 3 3 3 3 2 2 2
1 1 1 2 3 2 1 2 2 1 1 1 0 1 0 1 1 2 2 3 3 4 3 2 2 4 4 4 2 2 2 2 1 1 2 2 2 2 2 3 3 2 2 2
0 1 1 2 2 2 1 1 1 1 1 1 2 2 2 3 2 1 3 3 2 2 2 2 4 5 5 2 1 1 2 1 1 1 2 2 2 2 2 2 2 2 2 1
0 1 1 2 2 3 1 1 1 1 1 2 2 2 2 1 1 2 2 2 2 2 1 3 4 4 4 2 1 1 1 2 2 2 2 2 2 2 2 2 2 2 2 2
1 0 1 2 1 1 2 1 0 1 1 1 2 1 1 1 2 2 2 2 2 1 1 3 4 4 3 2 2 2 1 1 2 2 2 1 2 2 2 2 2 2 2 2
1 1 1 1 2 2 1 1 1 1 1 1 1 1 1 1 1 1 0 1 1 1 1 2 2 2 2 2 2 2 2 2 2 2 2 2 2 2 2 2 2 1 1 1
1 1 1 1 1 0 1 1 1 1 1 2 1 2 1 1 1 1 1 1 1 1 1 1 1 1 2 2 2 2 1 1 1 2 2 2 1 1 1 2 1 2 2 1
Wind_Direction
191 210 140 325 306 312 188 185 180 201 183 199 186 171 155 140 134 123 129 133 137 150 161 161 160 172 182 200 194 187 189 207 221 225 223 217 219 224 229 228 233 234 234 239
5 4 31 358 342 345 332 160 150 140 169 213 168 131 120 126 133 132 137 140 145 150 152 159 169 176 177 191 195 185 198 220 228 225 216 210 214 217 221 227 231 227 232 241
264 315 38 337 265 163 59 151 150 166 201 160 120 123 139 140 133 136 140 130 129 151 159 164 171 169 169 180 174 175 213 229 219 210 209 215 216 213 217 220 221 230 236 240
148 62 207 245 267 118 107 60 81 131 137 142 140 132 122 130 133 131 134 132 133 141 158 171 169 164 165 149 143 162 202 222 218 210 210 210 214 220 220 215 220 231 240 241
132 168 248 295 312 81 121 34 34 111 118 126 124 89 61 98 123 134 139 143 148 144 139 143 151 162 145 139 140 149 202 228 229 216 214 211 219 230 229 224 237 242 238 240
136 159 214 246 284 243 106 60 342 104 120 120 103 103 220 200 116 115 110 114 114 99 95 118 150 138 124 130 140 230 247 250 263 237 226 225 225 228 233 229 236 247 247 246
153 186 237 261 292 68 130 210 243 124 129 127 138 177 191 134 105 109 107 107 103 86 80 97 122 106 100 91 238 248 248 271 303 260 241 239 234 229 230 233 236 239 245 252
128 158 242 297 41 123 187 180 121 102 111 114 110 102 100 102 106 102 98 100 105 98 71 47 88 102 90 312 267 289 343 346 331 307 278 275 248 250 249 243 245 249 251 262
173 203 241 315 114 150 142 113 100 97 103 107 98 92 85 82 93 98 100 102 109 115 84 11 55 117 127 264 256 234 301 295 297 305 297 286 262 260 271 261 253 254 245 250
68 23 52 65 74 66 91 110 114 110 108 101 110 124 118 123 110 97 97 106 104 99 72 343 334 338 227 252 248 205 252 276 282 288 293 296 282 253 247 249 250 249 243 241
64 265 36 28 62 85 75 81 86 82 90 106 110 110 116 137 149 124 97 98 112 127 145 297 318 309 298 295 290 287 280 281 285 283 283 288 286 271 256 247 239 238 238 226
211 224 182 225 242 100 88 80 86 89 73 72 110 128 114 128 132 112 91 65 48 36 285 284 296 304 303 302 288 283 293 285 278 279 279 274 279 299 302 279 278 260 244 235
185 191 173 188 101 92 105 105 102 103 108 97 84 114 115 111 111 93 77 72 75 281 281 288 310 313 304 304 300 274 270 281 282 278 272 269 266 270 288 306 307 291 277 255
139 109 87 87 80 92 100 101 103 97 92 105 104 94 98 94 97 110 194 228 199 244 301 303 315 305 298 305 311 287 277 281 281 273 264 261 262 256 253 264 286 299 302 273
82 119 161 147 80 69 87 98 92 85 86 75 80 94 103 115 234 258 257 215 161 299 294 300 303 293 293 298 295 285 283 281 281 281 276 271 266 258 261 268 268 270 284 290
83 80 103 101 103 99 96 103 108 108 114 95 74 81 125 150 276 287 279 230 175 276 280 278 277 278 284 290 291 288 282 284 291 286 284 286 282 276 276 273 268 262 260 261
123 135 124 118 112 104 120 138 145 148 134 126 169 173 89 40 357 327 307 289 239 253 270 274 278 284 287 281 278 279 283 290 295 297 288 280 277 271 266 265 265 261 258 254
146 153 158 162 161 152 131 117 118 124 148 164 133 95 71 35 296 295 294 304 320 308 292 279 280 288 292 292 286 279 274 276 276 267 266 270 273 267 265 267 267 264 266 265
114 117 131 152 149 145 144 132 121 122 131 134 118 119 265 263 260 280 288 290 300 298 292 288 291 293 291 295 298 275 272 275 274 269 267 272 280 280 273 269 267 262 261 257
103 110 124 118 106 117 120 120 119 115 142 139 131 142 301 283 273 284 302 292 274 270 281 294 298 294 290 297 309 291 285 275 270 279 289 288 281 281 279 275 272 264 260 256
121 122 117 106 104 108 115 113 109 111 109 136 158 210 251 282 300 334 347 309 299 299 305 307 308 300 296 307 315 300 291 286 281 277 281 281 282 287 290 288 282 270 260 257
133 123 119 124 127 126 120 113 116 111 61 11 312 237 255 290 302 320 292 266 282 303 317 315 309 306 311 314 303 289 288 289 277 275 286 292 289 288 291 288 282 265 248 241
111 150 144 154 153 148 110 110 140 144 176 225 242 237 232 239 234 232 289 288 282 311 326 309 311 316 319 325 312 307 307 297 285 285 284 288 283 271 267 277 286 283 265 248
199 190 183 169 130 118 135 232 237 232 231 239 247 241 220 228 302 265 239 267 299 323 332 315 323 331 341 349 345 336 323 303 296 299 301 297 287 283 288 295 304 309 304 287
173 142 120 114 125 181 211 215 314 313 282 298 300 302 256 201 220 260 273 289 293 316 329 327 334 344 353 3 16 5 336 331 340 336 328 325 322 326 336 341 339 333 330 319
111 113 145 174 180 185 186 185 226 258 262 276 301 296 287 265 230 223 279 289 278 306 330 332 346 358 7 12 28 28 17 3 3 356 346 345 348 350 348 349 349 7 13 13
110 105 77 15 324 232 170 193 229 253 229 200 233 264 257 261 253 244 267 303 320 344 341 343 1 24 29 32 26 12 4 353 343 338 336 343 342 341 339 351 10 20 19 23
Height
1500 1496 1494 1497 1497 1495 1500 1506 1516 1514 1512 1507 1503 1502 1503 1503 1504 1506 1509 1510 1511 1512 1514 1516 1517 1519 1519 1520 1520 1521 1521 1521 1521 1521 1521 1522 1522 1522 1523 1523 1524 1524 1524 1524
1499 1493 1494 1496 1494 1494 1495 1497 1502 1505 1508 1500 1499 1501 1502 1503 1505 1506 1508 1509 1510 1511 1512 1514 1515 1516 1517 1517 1517 1518 1518 1518 1518 1518 1518 1518 1518 1518 1518 1518 1519 1519 1519 1519
1511 1499 1498 1508 1497 1495 1497 1496 1498 1505 1503 1499 1500 1501 1502 1503 1505 1506 1507 1507 1508 1510 1511 1512 1513 1514 1513 1514 1515 1514 1514 1514 1514 1513 1514 1514 1514 1514 1514 1514 1514 1515 1515 1515
1513 1508 1520 1509 1491 1490 1494 1496 1494 1495 1496 1497 1499 1501 1502 1503 1504 1506 1507 1508 1509 1509 1510 1511 1511 1512 1512 1512 1512 1512 1512 1511 1511 1511 1511 1511 1510 1510 1509 1510 1510 1510 1510 1510
1516 1519 1514 1501 1492 1491 1496 1502 1497 1496 1497 1498 1499 1501 1505 1505 1504 1505 1506 1507 1508 1508 1509 1509 1510 1510 1510 1510 1510 1510 1509 1508 1508 1507 1507 1506 1506 1506 1505 1505 1505 1506 1506 1506
1512 1516 1521 1506 1490 1487 1492 1506 1499 1496 1497 1498 1498 1507 1507 1505 1505 1505 1506 1507 1507 1507 1507 1508 1508 1509 1508 1508 1508 1507 1507 1506 1505 1504 1504 1503 1502 1502 1502 1501 1501 1502 1502 1502
1510 1513 1509 1494 1488 1487 1506 1509 1498 1496 1496 1497 1498 1501 1503 1503 1504 1505 1505 1506 1506 1506 1506 1506 1506 1506 1506 1506 1506 1505 1504 1503 1502 1501 1500 1500 1499 1498 1498 1498 1498 1498 1498 1497
1511 1515 1513 1491 1489 1495 1499 1495 1495 1495 1496 1497 1499 1500 1501 1502 1503 1503 1504 1504 1505 1505 1505 1505 1505 1504 1504 1503 1503 1502 1501 1500 1499 1498 1497 1496 1495 1494 1493 1494 1494 1493 1493 1492
1503 1506 1496 1491 1491 1492 1492 1493 1494 1495 1496 1497 1498 1499 1501 1502 1502 1502 1503 1503 1504 1503 1503 1503 1503 1502 1501 1501 1501 1500 1499 1497 1496 1495 1494 1493 1491 1491 1490 1490 1489 1489 1488 1487
1498 1497 1494 1492 1492 1492 1492 1493 1494 1495 1496 1496 1498 1498 1499 1501 1501 1501 1501 1502 1502 1501 1501 1500 1500 1500 1499 1498 1498 1496 1495 1494 1492 1491 1490 1489 1487 1487 1487 1486 1485 1484 1483 1482
1498 1496 1494 1493 1493 1493 1494 1494 1494 1495 1496 1496 1497 1498 1498 1499 1500 1499 1499 1500 1500 1499 1499 1498 1498 1497 1496 1495 1494 1492 1491 1490 1489 1487 1486 1484 1483 1482 1481 1481 1481 1480 1478 1478
1497 1493 1494 1494 1493 1493 1493 1494 1494 1494 1495 1496 1496 1497 1497 1497 1498 1498 1497 1498 1498 1497 1496 1495 1495 1494 1492 1491 1490 1489 1487 1486 1484 1483 1481 1480 1479 1478 1477 1476 1475 1475 1474 1473
1488 1490 1490 1491 1492 1492 1492 1493 1494 1494 1495 1495 1496 1496 1496 1495 1496 1496 1496 1496 1495 1494 1493 1492 1491 1490 1489 1487 1486 1485 1483 1482 1480 1479 1477 1476 1475 1473 1472 1471 1470 1469 1469 1468
1487 1488 1489 1490 1490 1491 1491 1492 1493 1493 1494 1494 1494 1494 1494 1494 1494 1494 1493 1493 1492 1491 1490 1489 1487 1486 1485 1483 1482 1481 1479 1478 1476 1475 1473 1472 1470 1469 1468 1466 1465 1464 1463 1463
1487 1487 1488 1488 1489 1489 1490 1490 1490 1491 1491 1492 1492 1492 1492 1491 1491 1491 1490 1490 1489 1488 1486 1485 1483 1482 1481 1479 1477 1476 1475 1473 1472 1470 1469 1467 1466 1464 1463 1462 1461 1459 1458 1458
1485 1486 1486 1487 1487 1488 1488 1488 1488 1488 1489 1489 1489 1489 1489 1489 1488 1488 1487 1486 1485 1483 1482 1480 1479 1477 1476 1474 1473 1471 1470 1469 1468 1466 1465 1463 1462 1461 1459 1458 1457 1455 1454 1454
1483 1484 1484 1485 1485 1486 1486 1486 1486 1486 1487 1487 1487 1487 1486 1486 1485 1484 1483 1482 1481 1479 1478 1476 1475 1473 1471 1470 1468 1467 1466 1464 1463 1462 1460 1459 1458 1456 1455 1454 1453 1451 1450 1450
1481 1481 1482 1483 1483 1484 1484 1484 1484 1484 1484 1484 1484 1484 1483 1482 1482 1481 1480 1478 1477 1475 1474 1472 1471 1469 1467 1465 1464 1463 1461 1460 1458 1457 1456 1455 1454 1453 1451 1450 1449 1448 1446 1446
1480 1481 1482 1482 1482 1482 1482 1482 1482 1482 1482 1482 1481 1481 1481 1480 1479 1477 1476 1475 1473 1471 1470 1468 1467 1465 1463 1461 1460 1458 1457 1456 1454 1453 1452 1451 1450 1449 1447 1446 1445 1444 1443 1442
1479 1480 1481 1481 1480 1480 1480 1480 1480 1480 1480 1479 1479 1478 1478 1477 1476 1474 1473 1471 1470 1468 1466 1465 1463 1461 1459 1457 1456 1455 1453 1452 1451 1449 1448 1447 1446 1445 1444 1442 1441 1440 1440 1439
1478 1479 1479 1479 1479 1479 1479 1479 1479 1478 1478 1478 1477 1476 1475 1474 1473 1472 1470 1468 1467 1465 1463 1461 1459 1458 1456 1454 1453 1452 1450 1449 1447 1446 1445 1444 1442 1441 1440 1438 1437 1437 1436 1435
1478 1478 1478 1478 1478 1478 1478 1478 1477 1477 1476 1476 1475 1474 1473 1472 1471 1469 1468 1467 1464 1462 1460 1458 1456 1455 1453 1451 1450 1448 1447 1446 1444 1443 1441 1440 1439 1437 1436 1435 1434 1433 1432 1431
1477 1477 1477 1477 1477 1477 1477 1477 1476 1476 1475 1474 1474 1472 1471 1470 1469 1467 1466 1465 1462 1460 1458 1456 1454 1452 1451 1449 1447 1446 1445 1443 1442 1440 1439 1437 1435 1434 1433 1432 1431 1430 1429 1428
1476 1476 1476 1476 1476 1475 1475 1475 1475 1475 1474 1473 1472 1471 1470 1468 1467 1466 1464 1462 1460 1458 1456 1454 1452 1450 1449 1447 1445 1444 1442 1441 1439 1437 1436 1434 1433 1432 1430 1429 1427 1426 1426 1425
1474 1474 1474 1474 1474 1474 1474 1474 1474 1473 1472 1471 1470 1469 1468 1466 1465 1464 1462 1460 1459 1456 1455 1453 1451 1449 1447 1445 1443 1442 1440 1439 1437 1435 1433 1431 1430 1429 1427 1426 1425 1424 1423 1422
1473 1473 1473 1473 1473 1473 1473 1473 1472 1471 1471 1470 1468 1467 1466 1465 1464 1462 1461 1459 1457 1455 1453 1452 1450 1448 1446 1444 1442 1440 1438 1437 1435 1433 1431 1429 1428 1427 1425 1424 1423 1421 1420 1419
1473 1473 1473 1473 1472 1472 1472 1471 1471 1470 1469 1468 1467 1466 1465 1464 1463 1461 1459 1458 1456 1454 1452 1451 1449 1447 1445 1443 1441 1439 1438 1436 1434 1432 1430 1429 1427 1425 1424 1422 1421 1419 1418 1416